Location: D�derode
(51.8092°N, 10.1065°E)
Time: 06:28:42
(UTC+00:00)

Meteor 1-10 Rocket - Pass Details

Date: 01 December 2020
Orbit: 836 x 910 km, 81.3° (Epoch: 23 January)

Event Time Altitude Azimuth Distance (km) Brightness Sun altitude
Rises 18:19:07 0° 198° (SSW) 3,421 7.6 -27.8°
Reaches altitude 10° 18:21:34 10° 201° (SSW) 2,479 6.8 -28.2°
Maximum altitude 18:27:10 69° 285° (WNW) 904 4.4 -29.1°
Enters shadow 18:28:30 51° 347° (NNW) 1,062 4.7 -29.3°
